Time,TemperatureF,DewpointF,PressureIn,WindDirection,WindDirectionDegrees,WindSpeedMPH,WindSpeedGustMPH,Humidity,HourlyPrecipIn,Conditions,Clouds,dailyrainin,SolarRadiationWatts/m^2,SoftwareType,DateUTC
2013-02-21 00:01:00,27.0,19.0,-100.00,WSW,237,9.0,12.0,72,-99.99,,,-99.99,-0.100000,,2013-02-21 07:01:00,
2013-02-21 00:11:00,26.0,19.0,-100.00,SW,233,8.0,11.0,71,-99.99,,,-99.99,-0.100000,,2013-02-21 07:11:00,
2013-02-21 00:21:00,26.0,18.0,-100.00,SW,231,8.0,11.0,71,-99.99,,,-99.99,-0.100000,,2013-02-21 07:21:00,
2013-02-21 00:31:00,26.0,19.0,-100.00,SW,231,7.0,10.0,72,-99.99,,,-99.99,-0.100000,,2013-02-21 07:31:00,
2013-02-21 00:41:00,26.0,19.0,-100.00,WSW,237,9.0,14.0,72,-99.99,,,-99.99,-0.100000,,2013-02-21 07:41:00,
2013-02-21 00:52:00,26.0,19.0,-100.00,WSW,244,8.0,12.0,74,-99.99,,,-99.99,0.000000,,2013-02-21 07:52:00,
2013-02-21 01:01:00,26.0,19.0,-100.00,WSW,243,9.0,13.0,74,-99.99,,,-99.99,-0.100000,,2013-02-21 08:01:00,
2013-02-21 01:11:00,25.0,19.0,-100.00,WSW,243,9.0,12.0,77,-99.99,,,-99.99,-0.100000,,2013-02-21 08:11:00,
2013-02-21 01:21:00,25.0,19.0,-100.00,WSW,241,9.0,13.0,80,-99.99,,,-99.99,-0.100000,,2013-02-21 08:21:00,
2013-02-21 01:31:00,24.0,20.0,-100.00,WSW,243,7.0,10.0,82,-99.99,,,-99.99,-0.100000,,2013-02-21 08:31:00,
2013-02-21 01:41:00,24.0,20.0,-100.00,WSW,240,8.0,13.0,83,-99.99,,,-99.99,-0.100000,,2013-02-21 08:41:00,
2013-02-21 01:51:00,24.0,20.0,-100.00,WSW,246,9.0,15.0,83,-99.99,,,-99.99,-0.100000,,2013-02-21 08:51:00,
2013-02-21 02:01:00,24.0,20.0,-100.00,WSW,257,9.0,12.0,83,-99.99,,,-99.99,-0.100000,,2013-02-21 09:01:00,
2013-02-21 02:11:00,24.0,20.0,-100.00,West,259,9.0,14.0,83,-99.99,,,-99.99,-0.100000,,2013-02-21 09:11:00,
2013-02-21 02:22:00,24.0,20.0,-100.00,West,261,11.0,13.0,83,-99.99,,,-99.99,-0.100000,,2013-02-21 09:22:00,
2013-02-21 02:31:00,24.0,20.0,-100.00,West,264,8.0,11.0,85,-99.99,,,-99.99,-0.100000,,2013-02-21 09:31:00,
2013-02-21 02:41:00,24.0,20.0,-100.00,West,261,8.0,10.0,87,-99.99,,,-99.99,-0.100000,,2013-02-21 09:41:00,
2013-02-21 02:51:00,24.0,21.0,-100.00,WSW,249,7.0,10.0,88,-99.99,,,-99.99,-0.100000,,2013-02-21 09:51:00,
2013-02-21 03:01:00,24.0,21.0,-100.00,WSW,242,6.0,9.0,88,-99.99,,,-99.99,-0.100000,,2013-02-21 10:01:00,
2013-02-21 03:11:00,24.0,20.0,-100.00,SW,236,6.0,9.0,87,-99.99,,,-99.99,0.000000,,2013-02-21 10:11:00,
2013-02-21 03:21:00,24.0,20.0,-100.00,WSW,238,7.0,10.0,87,-99.99,,,-99.99,-0.100000,,2013-02-21 10:21:00,
2013-02-21 03:31:00,23.0,20.0,-100.00,WSW,241,6.0,9.0,87,-99.99,,,-99.99,-0.100000,,2013-02-21 10:31:00,
2013-02-21 03:41:00,23.0,20.0,-100.00,SW,232,5.0,7.0,87,-99.99,,,-99.99,-0.100000,,2013-02-21 10:41:00,
2013-02-21 03:51:00,23.0,20.0,-100.00,SW,221,7.0,10.0,87,-99.99,,,-99.99,-0.100000,,2013-02-21 10:51:00,
2013-02-21 04:00:00,23.0,20.0,-100.00,SW,224,7.0,9.0,86,-99.99,,,-99.99,-0.100000,,2013-02-21 11:00:00,
2013-02-21 04:10:00,23.0,20.0,-100.00,SW,223,8.0,11.0,86,-99.99,,,-99.99,-0.100000,,2013-02-21 11:10:00,
2013-02-21 04:20:00,23.0,20.0,-100.00,SW,220,9.0,12.0,87,-99.99,,,-99.99,-0.100000,,2013-02-21 11:20:00,
2013-02-21 04:31:00,23.0,20.0,-100.00,SW,223,9.0,12.0,87,-99.99,,,-99.99,0.000000,,2013-02-21 11:31:00,
2013-02-21 04:41:00,23.0,20.0,-100.00,SW,222,7.0,10.0,87,-99.99,,,-99.99,0.000000,,2013-02-21 11:41:00,
2013-02-21 04:51:00,23.0,20.0,-100.00,SW,218,9.0,11.0,87,-99.99,,,-99.99,-0.100000,,2013-02-21 11:51:00,
2013-02-21 05:01:00,23.0,19.0,-100.00,SW,218,8.0,10.0,87,-99.99,,,-99.99,-0.100000,,2013-02-21 12:01:00,
2013-02-21 05:11:00,22.0,19.0,-100.00,SW,223,9.0,12.0,87,-99.99,,,-99.99,-0.100000,,2013-02-21 12:11:00,
2013-02-21 05:21:00,22.0,19.0,-100.00,SW,223,9.0,12.0,87,-99.99,,,-99.99,-0.100000,,2013-02-21 12:21:00,
2013-02-21 05:32:00,22.0,18.0,-100.00,SW,217,10.0,13.0,87,-99.99,,,-99.99,0.000000,,2013-02-21 12:32:00,
2013-02-21 05:42:00,22.0,18.0,-100.00,SW,220,9.0,12.0,87,-99.99,,,-99.99,-0.100000,,2013-02-21 12:42:00,
2013-02-21 05:52:00,21.0,18.0,-100.00,SW,222,9.0,13.0,87,-99.99,,,-99.99,-0.100000,,2013-02-21 12:52:00,
2013-02-21 06:01:00,21.0,18.0,-100.00,SW,227,9.0,12.0,87,-99.99,,,-99.99,-0.100000,,2013-02-21 13:01:00,
2013-02-21 06:11:00,21.0,18.0,-100.00,SW,226,8.0,11.0,87,-99.99,,,-99.99,-0.100000,,2013-02-21 13:11:00,
2013-02-21 06:22:00,21.0,18.0,-100.00,SW,221,9.0,12.0,87,-99.99,,,-99.99,-0.100000,,2013-02-21 13:22:00,
2013-02-21 06:31:00,21.0,18.0,-100.00,SW,227,7.0,11.0,87,-99.99,,,-99.99,0.000000,,2013-02-21 13:31:00,
2013-02-21 06:41:00,22.0,18.0,-100.00,SW,226,8.0,12.0,86,-99.99,,,-99.99,-0.100000,,2013-02-21 13:41:00,
2013-02-21 06:51:00,22.0,18.0,-100.00,SW,225,9.0,12.0,86,-99.99,,,-99.99,-0.100000,,2013-02-21 13:51:00,
2013-02-21 07:02:00,22.0,18.0,-100.00,SW,226,9.0,12.0,86,-99.99,,,-99.99,-0.100000,,2013-02-21 14:02:00,
2013-02-21 07:11:00,22.0,18.0,-100.00,SW,219,8.0,13.0,87,-99.99,,,-99.99,-0.100000,,2013-02-21 14:11:00,
2013-02-21 07:21:00,22.0,18.0,-100.00,SW,214,9.0,12.0,87,-99.99,,,-99.99,0.100000,,2013-02-21 14:21:00,
2013-02-21 07:31:00,21.0,18.0,-100.00,SW,214,11.0,13.0,87,-99.99,,,-99.99,0.900000,,2013-02-21 14:31:00,
2013-02-21 07:41:00,21.0,18.0,-100.00,SW,217,8.0,10.0,87,-99.99,,,-99.99,2.900000,,2013-02-21 14:41:00,
2013-02-21 07:52:00,21.0,18.0,-100.00,SW,214,9.0,11.0,87,-99.99,,,-99.99,8.300000,,2013-02-21 14:52:00,
2013-02-21 08:01:00,21.0,18.0,-100.00,SW,228,7.0,10.0,87,-99.99,,,-99.99,17.000000,,2013-02-21 15:01:00,
2013-02-21 08:11:00,21.0,17.0,-100.00,SW,223,8.0,10.0,87,-99.99,,,-99.99,34.200001,,2013-02-21 15:11:00,
2013-02-21 08:21:00,20.0,17.0,-100.00,SW,225,8.0,11.0,87,-99.99,,,-99.99,61.500000,,2013-02-21 15:21:00,
2013-02-21 08:31:00,20.0,17.0,-100.00,SW,227,9.0,13.0,86,-99.99,,,-99.99,115.400002,,2013-02-21 15:31:00,
2013-02-21 08:41:00,20.0,17.0,-100.00,SW,221,8.0,11.0,85,-99.99,,,-99.99,82.800003,,2013-02-21 15:41:00,
2013-02-21 08:51:00,20.0,16.0,-100.00,SW,227,8.0,10.0,85,-99.99,,,-99.99,127.300003,,2013-02-21 15:51:00,
2013-02-21 09:01:00,20.0,16.0,-100.00,SW,226,7.0,10.0,85,-99.99,,,-99.99,114.099998,,2013-02-21 16:01:00,
2013-02-21 09:12:00,19.0,16.0,-100.00,SW,221,9.0,12.0,85,-99.99,,,-99.99,180.399994,,2013-02-21 16:12:00,
2013-02-21 09:21:00,20.0,16.0,-100.00,SW,227,9.0,13.0,84,-99.99,,,-99.99,277.200012,,2013-02-21 16:21:00,
2013-02-21 09:31:00,20.0,16.0,-100.00,SW,231,8.0,11.0,83,-99.99,,,-99.99,303.500000,,2013-02-21 16:31:00,
2013-02-21 09:41:00,20.0,16.0,-100.00,SW,232,9.0,14.0,83,-99.99,,,-99.99,332.299988,,2013-02-21 16:41:00,
2013-02-21 09:51:00,21.0,16.0,-100.00,SW,228,8.0,13.0,82,-99.99,,,-99.99,385.000000,,2013-02-21 16:51:00,
2013-02-21 10:01:00,21.0,17.0,-100.00,SW,220,9.0,12.0,82,-99.99,,,-99.99,253.399994,,2013-02-21 17:01:00,
2013-02-21 10:11:00,21.0,17.0,-100.00,SW,217,9.0,12.0,83,-99.99,,,-99.99,354.100006,,2013-02-21 17:11:00,
2013-02-21 10:21:00,22.0,17.0,-100.00,SW,219,9.0,11.0,82,-99.99,,,-99.99,307.000000,,2013-02-21 17:21:00,
2013-02-21 10:32:00,22.0,17.0,-100.00,SW,223,8.0,11.0,82,-99.99,,,-99.99,359.799988,,2013-02-21 17:32:00,
2013-02-21 10:41:00,23.0,18.0,-100.00,SW,234,8.0,12.0,80,-99.99,,,-99.99,331.200012,,2013-02-21 17:41:00,
2013-02-21 10:52:00,23.0,18.0,-100.00,WSW,247,10.0,12.0,79,-99.99,,,-99.99,156.600006,,2013-02-21 17:52:00,
2013-02-21 11:01:00,24.0,18.0,-100.00,SW,236,9.0,13.0,78,-99.99,,,-99.99,374.799988,,2013-02-21 18:01:00,
2013-02-21 11:11:00,24.0,18.0,-100.00,WSW,238,10.0,12.0,78,-99.99,,,-99.99,383.799988,,2013-02-21 18:11:00,
2013-02-21 11:21:00,24.0,18.0,-100.00,SW,229,9.0,12.0,78,-99.99,,,-99.99,537.400024,,2013-02-21 18:21:00,
2013-02-21 11:31:00,24.0,19.0,-100.00,SW,223,9.0,12.0,78,-99.99,,,-99.99,647.900024,,2013-02-21 18:31:00,
2013-02-21 11:42:00,25.0,19.0,-100.00,SSW,211,9.0,13.0,78,-99.99,,,-99.99,483.000000,,2013-02-21 18:42:00,
2013-02-21 11:51:00,25.0,19.0,-100.00,SW,218,10.0,13.0,77,-99.99,,,-99.99,484.600006,,2013-02-21 18:51:00,
2013-02-21 12:01:00,25.0,19.0,-100.00,SW,225,11.0,15.0,75,-99.99,,,-99.99,567.400024,,2013-02-21 19:01:00,
2013-02-21 12:11:00,25.0,19.0,-100.00,SW,227,10.0,13.0,76,-99.99,,,-99.99,635.000000,,2013-02-21 19:11:00,
2013-02-21 12:21:00,26.0,19.0,-100.00,SW,232,11.0,15.0,75,-99.99,,,-99.99,663.500000,,2013-02-21 19:21:00,
2013-02-21 12:31:00,26.0,19.0,-100.00,SW,229,12.0,15.0,75,-99.99,,,-99.99,640.099976,,2013-02-21 19:31:00,
2013-02-21 12:41:00,26.0,20.0,-100.00,SW,215,13.0,16.0,76,-99.99,,,-99.99,638.200012,,2013-02-21 19:41:00,
2013-02-21 12:51:00,26.0,20.0,-100.00,SW,220,12.0,16.0,76,-99.99,,,-99.99,635.599976,,2013-02-21 19:51:00,
2013-02-21 13:01:00,26.0,20.0,-100.00,SW,226,10.0,14.0,76,-99.99,,,-99.99,637.700012,,2013-02-21 20:01:00,
2013-02-21 13:11:00,27.0,21.0,-100.00,SW,222,11.0,14.0,76,-99.99,,,-99.99,638.099976,,2013-02-21 20:11:00,
2013-02-21 13:21:00,27.0,20.0,-100.00,SW,217,11.0,14.0,75,-99.99,,,-99.99,634.599976,,2013-02-21 20:21:00,
2013-02-21 13:31:00,27.0,19.0,-100.00,SW,229,10.0,14.0,72,-99.99,,,-99.99,631.500000,,2013-02-21 20:31:00,
2013-02-21 13:41:00,27.0,19.0,-100.00,SW,214,12.0,16.0,70,-99.99,,,-99.99,627.599976,,2013-02-21 20:41:00,
2013-02-21 13:52:00,27.0,19.0,-100.00,WSW,238,11.0,18.0,71,-99.99,,,-99.99,621.200012,,2013-02-21 20:52:00,
2013-02-21 14:02:00,28.0,20.0,-100.00,WSW,239,10.0,15.0,70,-99.99,,,-99.99,611.099976,,2013-02-21 21:02:00,
2013-02-21 14:11:00,28.0,20.0,-100.00,WSW,249,10.0,14.0,71,-99.99,,,-99.99,601.099976,,2013-02-21 21:11:00,
2013-02-21 14:21:00,28.0,20.0,-100.00,SSW,210,10.0,14.0,70,-99.99,,,-99.99,589.299988,,2013-02-21 21:21:00,
2013-02-21 14:31:00,28.0,20.0,-100.00,SSW,213,11.0,16.0,69,-99.99,,,-99.99,575.400024,,2013-02-21 21:31:00,
2013-02-21 14:41:00,29.0,19.0,-100.00,SW,228,11.0,14.0,68,-99.99,,,-99.99,560.700012,,2013-02-21 21:41:00,
2013-02-21 14:51:00,29.0,20.0,-100.00,SW,235,9.0,12.0,69,-99.99,,,-99.99,544.700012,,2013-02-21 21:51:00,
2013-02-21 15:01:00,30.0,20.0,-100.00,SW,220,11.0,16.0,66,-99.99,,,-99.99,528.200012,,2013-02-21 22:01:00,
2013-02-21 15:11:00,29.0,19.0,-100.00,SSW,213,11.0,14.0,65,-99.99,,,-99.99,515.400024,,2013-02-21 22:11:00,
2013-02-21 15:21:00,30.0,21.0,-100.00,SW,216,10.0,15.0,66,-99.99,,,-99.99,494.200012,,2013-02-21 22:21:00,
2013-02-21 15:31:00,30.0,20.0,-100.00,WSW,240,11.0,15.0,65,-99.99,,,-99.99,471.200012,,2013-02-21 22:31:00,
2013-02-21 15:41:00,30.0,20.0,-100.00,SW,235,10.0,15.0,66,-99.99,,,-99.99,450.600006,,2013-02-21 22:41:00,
2013-02-21 15:51:00,30.0,20.0,-100.00,WSW,242,13.0,17.0,65,-99.99,,,-99.99,233.199997,,2013-02-21 22:51:00,
2013-02-21 16:01:00,30.0,20.0,-100.00,SW,224,12.0,16.0,66,-99.99,,,-99.99,287.000000,,2013-02-21 23:01:00,
2013-02-21 16:11:00,30.0,20.0,-100.00,SW,229,12.0,16.0,64,-99.99,,,-99.99,350.899994,,2013-02-21 23:11:00,
2013-02-21 16:21:00,30.0,20.0,-100.00,SW,227,10.0,14.0,64,-99.99,,,-99.99,234.500000,,2013-02-21 23:21:00,
2013-02-21 16:31:00,30.0,19.0,-100.00,WSW,237,12.0,18.0,63,-99.99,,,-99.99,253.600006,,2013-02-21 23:31:00,
2013-02-21 16:41:00,30.0,20.0,-100.00,WSW,240,13.0,18.0,65,-99.99,,,-99.99,240.199997,,2013-02-21 23:41:00,
2013-02-21 16:52:00,30.0,21.0,-100.00,SW,235,12.0,16.0,68,-99.99,,,-99.99,172.100006,,2013-02-21 23:52:00,
2013-02-21 17:01:00,30.0,22.0,-100.00,WSW,246,13.0,18.0,69,-99.99,,,-99.99,251.100006,,2013-02-22 00:01:00,
2013-02-21 17:11:00,30.0,22.0,-100.00,WSW,249,10.0,13.0,71,-99.99,,,-99.99,182.199997,,2013-02-22 00:11:00,
2013-02-21 17:21:00,29.0,21.0,-100.00,WSW,242,12.0,16.0,70,-99.99,,,-99.99,126.599998,,2013-02-22 00:21:00,
2013-02-21 17:31:00,29.0,21.0,-100.00,WSW,258,14.0,17.0,72,-99.99,,,-99.99,153.100006,,2013-02-22 00:31:00,
2013-02-21 17:41:00,29.0,22.0,-100.00,West,261,11.0,13.0,74,-99.99,,,-99.99,85.300003,,2013-02-22 00:41:00,
2013-02-21 17:51:00,29.0,21.0,-100.00,West,260,12.0,15.0,73,-99.99,,,-99.99,80.900002,,2013-02-22 00:51:00,
2013-02-21 18:01:00,29.0,22.0,-100.00,WSW,253,10.0,14.0,74,-99.99,,,-99.99,52.000000,,2013-02-22 01:01:00,
2013-02-21 18:11:00,29.0,21.0,-100.00,WSW,255,10.0,14.0,74,-99.99,,,-99.99,15.600000,,2013-02-22 01:11:00,
2013-02-21 18:21:00,28.0,21.0,-100.00,WSW,245,6.0,9.0,74,-99.99,,,-99.99,12.000000,,2013-02-22 01:21:00,
2013-02-21 18:32:00,28.0,21.0,-100.00,SW,234,5.0,8.0,75,-99.99,,,-99.99,2.700000,,2013-02-22 01:32:00,
2013-02-21 18:41:00,28.0,21.0,-100.00,SW,233,9.0,12.0,75,-99.99,,,-99.99,0.500000,,2013-02-22 01:41:00,
2013-02-21 18:51:00,28.0,21.0,-100.00,SW,233,7.0,10.0,76,-99.99,,,-99.99,0.000000,,2013-02-22 01:51:00,
2013-02-21 19:01:00,28.0,21.0,-100.00,SW,227,8.0,10.0,77,-99.99,,,-99.99,-0.100000,,2013-02-22 02:01:00,
2013-02-21 19:11:00,28.0,22.0,-100.00,SW,216,7.0,11.0,79,-99.99,,,-99.99,-0.100000,,2013-02-22 02:11:00,
2013-02-21 19:21:00,28.0,22.0,-100.00,SSW,205,8.0,11.0,79,-99.99,,,-99.99,-0.100000,,2013-02-22 02:21:00,
2013-02-21 19:31:00,28.0,22.0,-100.00,SSW,213,9.0,12.0,77,-99.99,,,-99.99,-0.100000,,2013-02-22 02:31:00,
2013-02-21 19:41:00,28.0,21.0,-100.00,SSW,210,9.0,12.0,74,-99.99,,,-99.99,-0.100000,,2013-02-22 02:41:00,
2013-02-21 19:52:00,28.0,22.0,-100.00,South,191,9.0,11.0,76,-99.99,,,-99.99,-0.100000,,2013-02-22 02:52:00,
2013-02-21 20:01:00,28.0,22.0,-100.00,South,186,8.0,11.0,78,-99.99,,,-99.99,-0.100000,,2013-02-22 03:01:00,
2013-02-21 20:11:00,28.0,21.0,-100.00,South,191,8.0,10.0,76,-99.99,,,-99.99,-0.100000,,2013-02-22 03:11:00,
2013-02-21 20:21:00,28.0,21.0,-100.00,South,184,8.0,9.0,75,-99.99,,,-99.99,-0.100000,,2013-02-22 03:21:00,
2013-02-21 20:31:00,28.0,21.0,-100.00,South,181,7.0,9.0,76,-99.99,,,-99.99,-0.100000,,2013-02-22 03:31:00,
2013-02-21 20:41:00,27.0,21.0,-100.00,South,184,9.0,12.0,77,-99.99,,,-99.99,-0.100000,,2013-02-22 03:41:00,
2013-02-21 20:51:00,27.0,21.0,-100.00,SSW,193,11.0,13.0,75,-99.99,,,-99.99,-0.100000,,2013-02-22 03:51:00,
2013-02-21 21:01:00,27.0,21.0,-100.00,SSW,199,11.0,15.0,75,-99.99,,,-99.99,-0.100000,,2013-02-22 04:01:00,
2013-02-21 21:11:00,29.0,21.0,-100.00,SSW,209,14.0,18.0,72,-99.99,,,-99.99,-0.100000,,2013-02-22 04:11:00,
2013-02-21 21:21:00,28.0,21.0,-100.00,SW,215,13.0,17.0,73,-99.99,,,-99.99,-0.100000,,2013-02-22 04:21:00,
2013-02-21 21:31:00,28.0,21.0,-100.00,SW,220,12.0,16.0,74,-99.99,,,-99.99,0.000000,,2013-02-22 04:31:00,
2013-02-21 21:41:00,28.0,22.0,-100.00,SW,217,12.0,17.0,76,-99.99,,,-99.99,-0.100000,,2013-02-22 04:41:00,
2013-02-21 21:51:00,28.0,22.0,-100.00,SW,217,11.0,14.0,77,-99.99,,,-99.99,-0.100000,,2013-02-22 04:51:00,
2013-02-21 22:01:00,27.0,22.0,-100.00,SW,218,11.0,18.0,78,-99.99,,,-99.99,-0.100000,,2013-02-22 05:01:00,
2013-02-21 22:11:00,27.0,22.0,-100.00,SW,222,11.0,15.0,78,-99.99,,,-99.99,-0.100000,,2013-02-22 05:11:00,
2013-02-21 22:21:00,27.0,22.0,-100.00,SW,218,11.0,15.0,80,-99.99,,,-99.99,-0.100000,,2013-02-22 05:21:00,
2013-02-21 22:32:00,27.0,22.0,-100.00,SW,218,12.0,16.0,80,-99.99,,,-99.99,-0.100000,,2013-02-22 05:32:00,
2013-02-21 22:41:00,27.0,22.0,-100.00,SW,217,11.0,16.0,80,-99.99,,,-99.99,-0.100000,,2013-02-22 05:41:00,
2013-02-21 22:52:00,27.0,22.0,-100.00,SW,217,11.0,14.0,80,-99.99,,,-99.99,-0.100000,,2013-02-22 05:52:00,
2013-02-21 23:01:00,28.0,22.0,-100.00,SW,215,11.0,16.0,80,-99.99,,,-99.99,-0.100000,,2013-02-22 06:01:00,
2013-02-21 23:11:00,28.0,22.0,-100.00,SW,217,11.0,15.0,79,-99.99,,,-99.99,0.000000,,2013-02-22 06:11:00,
2013-02-21 23:21:00,28.0,22.0,-100.00,SW,222,10.0,15.0,78,-99.99,,,-99.99,-0.100000,,2013-02-22 06:21:00,
2013-02-21 23:31:00,28.0,22.0,-100.00,SW,225,12.0,18.0,76,-99.99,,,-99.99,-0.100000,,2013-02-22 06:31:00,
2013-02-21 23:41:00,29.0,22.0,-100.00,SW,228,11.0,16.0,75,-99.99,,,-99.99,0.000000,,2013-02-22 06:41:00,
2013-02-21 23:51:00,29.0,22.0,-100.00,SW,232,11.0,15.0,75,-99.99,,,-99.99,-0.100000,,2013-02-22 06:51:00,